• In Netherlands
  • List of Countries
  • For 7 days
  • Water Temperature
  • Satellite Maps
  • Weather Map
  • Weather Widgets
  • user-avatar
    Login

    Hourly Weather Megri

    Today, 19 October, Friday

    Time Temperature Precipitation Wind Pressure Humidity
    00:00 +10°C° 0 mm 2 mps 625 mmHg 67%
    01:00 +9°C° 0 mm 2 mps 625 mmHg 68%
    02:00 +9°C° 0 mm 2 mps 625 mmHg 70%
    03:00 +9°C° 0 mm 2 mps 625 mmHg 72%
    04:00 +9°C° 0 mm 1 mps 625 mmHg 72%
    05:00 +9°C° 0 mm 1 mps 625 mmHg 72%
    06:00 +8°C° 0 mm 1 mps 624 mmHg 73%
    07:00 +10°C° 0 mm 1 mps 625 mmHg 63%
    08:00 +12°C° 0 mm 1 mps 626 mmHg 52%
    09:00 +14°C° 0 mm 1 mps 627 mmHg 42%
    10:00 +15°C° 0 mm 1 mps 627 mmHg 38%
    11:00 +16°C° 0 mm 1 mps 627 mmHg 33%
    12:00 +16°C° 0 mm 0 mps 627 mmHg 28%
    13:00 +19°C° 0 mm 1 mps 627 mmHg 28%
    14:00 +19°C° 0 mm 1 mps 627 mmHg 28%
    15:00 +19°C° 0 mm 1 mps 627 mmHg 27%
    16:00 +18°C° 0 mm 1 mps 626 mmHg 32%
    17:00 +16°C° 0 mm 1 mps 626 mmHg 36%
    18:00 +14°C° 0 mm 1 mps 626 mmHg 41%
    19:00 +14°C° 0 mm 1 mps 626 mmHg 44%
    20:00 +13°C° 0 mm 1 mps 625 mmHg 48%
    21:00 +13°C° 0 mm 1 mps 625 mmHg 52%
    22:00 +12°C° 0 mm 1 mps 625 mmHg 54%
    23:00 +12°C° 0 mm 1 mps 625 mmHg 56%

    Tomorrow, 20 October, Saturday

    Time Temperature Precipitation Wind Pressure Humidity
    00:00 +11°C° 0 mm 1 mps 625 mmHg 58%
    01:00 +11°C° 0 mm 1 mps 624 mmHg 57%
    02:00 +11°C° 0 mm 1 mps 624 mmHg 57%
    03:00 +10°C° 0 mm 1 mps 624 mmHg 57%
    04:00 +10°C° 0 mm 1 mps 624 mmHg 56%
    05:00 +10°C° 0 mm 1 mps 624 mmHg 56%
    06:00 +10°C° 0 mm 1 mps 624 mmHg 55%
    07:00 +12°C° 0 mm 1 mps 625 mmHg 48%
    08:00 +14°C° 0 mm 1 mps 626 mmHg 41%
    09:00 +16°C° 0 mm 1 mps 626 mmHg 34%
    10:00 +18°C° 0 mm 1 mps 626 mmHg 33%
    11:00 +18°C° 0 mm 2 mps 626 mmHg 31%
    12:00 +19°C° 0 mm 2 mps 627 mmHg 29%
    13:00 +19°C° 0 mm 2 mps 626 mmHg 29%
    14:00 +19°C° 0 mm 2 mps 626 mmHg 29%
    15:00 +19°C° 0 mm 2 mps 626 mmHg 29%
    16:00 +18°C° 0 mm 2 mps 625 mmHg 32%
    17:00 +16°C° 0 mm 1 mps 625 mmHg 36%
    18:00 +15°C° 0 mm 1 mps 624 mmHg 40%
    19:00 +15°C° 0 mm 1 mps 624 mmHg 42%
    20:00 +14°C° 0 mm 1 mps 624 mmHg 43%
    21:00 +14°C° 0 mm 1 mps 624 mmHg 45%
    22:00 +13°C° 0 mm 1 mps 624 mmHg 45%
    23:00 +13°C° 0 mm 1 mps 624 mmHg 46%

    Day after tomorrow, 21 October, Sunday

    Time Temperature Precipitation Wind Pressure Humidity
    00:00 +13°C° 0 mm 1 mps 624 mmHg 47%
    01:00 +13°C° 0 mm 1 mps 623 mmHg 48%
    02:00 +13°C° 0 mm 1 mps 623 mmHg 50%
    03:00 +12°C° 0 mm 1 mps 623 mmHg 52%
    04:00 +12°C° 0 mm 1 mps 623 mmHg 54%
    05:00 +12°C° 0 mm 1 mps 623 mmHg 57%
    06:00 +11°C° 0 mm 1 mps 623 mmHg 59%
    07:00 +13°C° 0 mm 1 mps 624 mmHg 54%
    08:00 +15°C° 0 mm 1 mps 625 mmHg 49%
    09:00 +16°C° 0 mm 2 mps 625 mmHg 44%
    10:00 +17°C° 0 mm 2 mps 625 mmHg 43%
    11:00 +18°C° 0 mm 3 mps 625 mmHg 41%
    12:00 +19°C° 0 mm 3 mps 625 mmHg 40%
    13:00 +18°C° 0.2 mm 3 mps 625 mmHg 43%
    14:00 +18°C° 0.2 mm 3 mps 625 mmHg 46%
    15:00 +17°C° 0.2 mm 3 mps 624 mmHg 48%
    16:00 +16°C° 0.1 mm 2 mps 624 mmHg 52%
    17:00 +16°C° 0.1 mm 2 mps 624 mmHg 55%
    18:00 +15°C° 0.1 mm 2 mps 624 mmHg 58%
    19:00 +15°C° 0.1 mm 1 mps 624 mmHg 60%
    20:00 +14°C° 0.1 mm 1 mps 623 mmHg 62%
    21:00 +14°C° 0.1 mm 1 mps 623 mmHg 64%
    22:00 +13°C° 0 mm 1 mps 623 mmHg 65%
    23:00 +13°C° 0 mm 1 mps 623 mmHg 66%

    22 October, Monday

    Time Temperature Precipitation Wind Pressure Humidity
    00:00 +13°C° 0 mm 1 mps 622 mmHg 67%
    01:00 +13°C° 0 mm 1 mps 622 mmHg 68%
    02:00 +12°C° 0 mm 1 mps 622 mmHg 69%
    03:00 +12°C° 0 mm 1 mps 622 mmHg 70%
    04:00 +12°C° 0 mm 1 mps 622 mmHg 71%
    05:00 +11°C° 0 mm 1 mps 622 mmHg 73%
    06:00 +11°C° 0 mm 1 mps 622 mmHg 74%
    07:00 +12°C° 0 mm 1 mps 623 mmHg 67%
    08:00 +14°C° 0 mm 2 mps 624 mmHg 59%
    09:00 +15°C° 0 mm 2 mps 624 mmHg 52%
    10:00 +16°C° 0 mm 2 mps 624 mmHg 49%
    11:00 +17°C° 0 mm 3 mps 625 mmHg 45%
    12:00 +18°C° 0 mm 3 mps 625 mmHg 42%
    13:00 +18°C° 0.1 mm 3 mps 624 mmHg 41%
    14:00 +18°C° 0.1 mm 3 mps 624 mmHg 40%
    15:00 +18°C° 0.1 mm 3 mps 624 mmHg 38%
    16:00 +17°C° 0 mm 2 mps 624 mmHg 41%
    17:00 +16°C° 0 mm 2 mps 624 mmHg 44%
    18:00 +15°C° 0 mm 1 mps 624 mmHg 47%
    19:00 +14°C° 0 mm 1 mps 624 mmHg 48%
    20:00 +14°C° 0 mm 1 mps 624 mmHg 48%
    21:00 +13°C° 0 mm 1 mps 624 mmHg 49%
    22:00 +13°C° 0 mm 1 mps 624 mmHg 50%
    23:00 +13°C° 0 mm 1 mps 624 mmHg 51%

    23 October, Tuesday

    Time Temperature Precipitation Wind Pressure Humidity
    00:00 +12°C° 0 mm 1 mps 624 mmHg 51%
    01:00 +12°C° 0 mm 1 mps 624 mmHg 54%
    02:00 +12°C° 0 mm 1 mps 623 mmHg 57%
    03:00 +10°C° 0 mm 2 mps 623 mmHg 60%
    04:00 +10°C° 0 mm 2 mps 623 mmHg 64%
    05:00 +10°C° 0 mm 2 mps 623 mmHg 68%
    06:00 +9°C° 0 mm 2 mps 624 mmHg 71%
    07:00 +12°C° 0 mm 2 mps 624 mmHg 65%
    08:00 +13°C° 0 mm 2 mps 625 mmHg 59%
    09:00 +15°C° 0 mm 2 mps 626 mmHg 53%
    10:00 +16°C° 0 mm 2 mps 626 mmHg 49%
    11:00 +17°C° 0 mm 2 mps 626 mmHg 44%
    12:00 +18°C° 0 mm 3 mps 626 mmHg 40%
    13:00 +18°C° 0 mm 3 mps 625 mmHg 38%
    14:00 +18°C° 0 mm 3 mps 625 mmHg 36%
    15:00 +19°C° 0 mm 4 mps 625 mmHg 34%
    16:00 +17°C° 0 mm 3 mps 625 mmHg 36%
    17:00 +16°C° 0 mm 2 mps 625 mmHg 37%
    18:00 +15°C° 0 mm 2 mps 625 mmHg 39%
    19:00 +15°C° 0 mm 1 mps 624 mmHg 40%
    20:00 +14°C° 0 mm 1 mps 624 mmHg 42%
    21:00 +14°C° 0 mm 1 mps 624 mmHg 44%
    22:00 +13°C° 0 mm 1 mps 624 mmHg 46%
    23:00 +13°C° 0 mm 1 mps 624 mmHg 48%

    24 October, Wednesday

    Time Temperature Precipitation Wind Pressure Humidity
    00:00 +13°C° 0 mm 1 mps 624 mmHg 50%
    01:00 +12°C° 0 mm 1 mps 623 mmHg 52%
    02:00 +12°C° 0 mm 1 mps 623 mmHg 54%
    03:00 +11°C° 0 mm 1 mps 623 mmHg 56%
    04:00 +11°C° 0 mm 1 mps 623 mmHg 57%
    05:00 +11°C° 0 mm 1 mps 623 mmHg 59%
    06:00 +10°C° 0 mm 1 mps 623 mmHg 60%
    07:00 +12°C° 0 mm 2 mps 624 mmHg 55%
    08:00 +14°C° 0 mm 2 mps 624 mmHg 49%
    09:00 +16°C° 0 mm 2 mps 625 mmHg 44%
    10:00 +17°C° 0 mm 3 mps 625 mmHg 41%
    11:00 +18°C° 0 mm 3 mps 625 mmHg 38%
    12:00 +19°C° 0 mm 4 mps 624 mmHg 35%
    13:00 +19°C° 0 mm 4 mps 624 mmHg 35%
    14:00 +19°C° 0 mm 4 mps 624 mmHg 34%
    15:00 +20°C° 0 mm 4 mps 623 mmHg 34%
    16:00 +18°C° 0.1 mm 3 mps 623 mmHg 37%
    17:00 +17°C° 0.1 mm 2 mps 622 mmHg 41%
    18:00 +16°C° 0.1 mm 2 mps 622 mmHg 44%
    19:00 +16°C° 0.1 mm 2 mps 622 mmHg 46%
    20:00 +15°C° 0.1 mm 2 mps 621 mmHg 47%
    21:00 +15°C° 0.1 mm 2 mps 621 mmHg 48%
    22:00 +15°C° 0 mm 2 mps 621 mmHg 51%
    23:00 +13°C° 0 mm 3 mps 620 mmHg 53%
    Show more